Tracking 29892 objects as of 21-Nov-2024
HD Live streaming from Space Station
objects crossing your sky now

STARLINK-2295

Track STARLINK-2295 now!
10-day predictions
STARLINK-2295 is classified as:


NORAD ID: 48036
Int'l Code: 2021-024BM
Perigee: 497.9 km
Apogee: 500.3 km
Inclination: 53.0 °
Period: 94.5 minutes
Semi major axis: 6870 km
RCS: Unknown
Launch date: March 24, 2021
Source: United States (US)
Launch site: AIR FORCE EASTERN TEST RANGE (AFETR)
Your satellite tracking list
Your tracking list is empty




NASA's NSSDC Master Catalog

Two Line Element Set (TLE):
1 48036U 21024BM  24326.00001157  .00082212  00000-0  32674-2 0  9990
2 48036  53.0471 294.8621 0001706  98.6486 133.0420 15.24604786202752
Source of the keplerian elements: AFSPC